contact:dominique.lefevre@mio.osupytheas.fr, maurice.libes@osupytheas.fr, didier.mallarino@osupytheas.fr
Project:EMSO http://www.emso-fr.org/EMSO-France
Depth: 2436.0 m
Title:EMSO Ligure Ouest : Data MII capteur CSTAR
DateTime,Latitude,Longitude,Instrument_Serial,Reference_Counts,Signal_Counts,Corrected_Signal_raw_counts,Calculated_Beam_c_inverse_meters,Internal_thermistor_counts
DateTime,Latitude,Longitude,Instrument_Serial,Reference_Counts,Signal_Counts,Corrected_Signal_raw_counts,Calculated_Beam_c_inverse_meters,Internal_thermistor_counts
2021-04-03T00:00:07,42.805,6.029,CST-1368DR,5670,7929,15040,0.150,551
2021-04-03T00:03:08,42.805,6.029,CST-1368DR,5670,7928,15039,0.151,551
2021-04-03T00:06:10,42.805,6.029,CST-1368DR,5670,7927,15037,0.151,551
2021-04-03T00:09:11,42.805,6.029,CST-1368DR,5670,7922,15027,0.154,551
2021-04-03T00:12:13,42.805,6.029,CST-1368DR,5669,7926,15038,0.151,551
2021-04-03T00:15:14,42.805,6.029,CST-1368DR,5669,7925,15036,0.151,551
2021-04-03T00:18:16,42.805,6.029,CST-1368DR,5669,7926,15038,0.151,551
2021-04-03T00:21:18,42.805,6.029,CST-1368DR,5669,7926,15038,0.151,551
2021-04-03T00:24:19,42.805,6.029,CST-1368DR,5668,7926,15040,0.150,551
2021-04-03T00:27:21,42.805,6.029,CST-1368DR,5668,7925,15038,0.151,551
2021-04-03T00:30:22,42.805,6.029,CST-1368DR,5668,7925,15038,0.151,551
2021-04-03T00:33:24,42.805,6.029,CST-1368DR,5668,7925,15038,0.151,551
2021-04-03T00:36:26,42.805,6.029,CST-1368DR,5667,7925,15040,0.150,551
2021-04-03T00:39:27,42.805,6.029,CST-1368DR,5667,7924,15039,0.151,551
2021-04-03T00:42:29,42.805,6.029,CST-1368DR,5667,7921,15034,0.152,551
2021-04-03T00:45:30,42.805,6.029,CST-1368DR,5667,7923,15038,0.151,551
2021-04-03T00:48:32,42.805,6.029,CST-1368DR,5667,7921,15034,0.152,551
2021-04-03T00:51:33,42.805,6.029,CST-1368DR,5666,7923,15039,0.151,551
2021-04-03T00:54:35,42.805,6.029,CST-1368DR,5666,7922,15037,0.151,551
2021-04-03T00:57:37,42.805,6.029,CST-1368DR,5666,7921,15036,0.151,551
2021-04-03T01:00:38,42.805,6.029,CST-1368DR,5666,7922,15037,0.151,551
2021-04-03T01:03:40,42.805,6.029,CST-1368DR,5666,7920,15033,0.152,551
2021-04-03T01:06:41,42.805,6.029,CST-1368DR,5665,7921,15039,0.151,551
2021-04-03T01:09:43,42.805,6.029,CST-1368DR,5665,7920,15036,0.151,551
2021-04-03T01:12:44,42.805,6.029,CST-1368DR,5665,7920,15037,0.151,551
2021-04-03T01:15:46,42.805,6.029,CST-1368DR,5665,7918,15032,0.152,551
2021-04-03T01:18:48,42.805,6.029,CST-1368DR,5665,7919,15035,0.152,551
2021-04-03T01:21:49,42.805,6.029,CST-1368DR,5665,7920,15035,0.152,551
2021-04-03T01:24:51,42.805,6.029,CST-1368DR,5664,7920,15038,0.151,550
2021-04-03T01:27:52,42.805,6.029,CST-1368DR,5664,7919,15037,0.151,551
2021-04-03T01:30:54,42.805,6.029,CST-1368DR,5664,7917,15033,0.152,551
2021-04-03T01:33:56,42.805,6.029,CST-1368DR,5664,7918,15035,0.152,551
2021-04-03T01:36:57,42.805,6.029,CST-1368DR,5664,7918,15034,0.152,551
2021-04-03T01:39:59,42.805,6.029,CST-1368DR,5663,7918,15038,0.151,551
2021-04-03T01:43:00,42.805,6.029,CST-1368DR,5663,7915,15031,0.153,551
2021-04-03T01:46:02,42.805,6.029,CST-1368DR,5663,7917,15035,0.152,551
2021-04-03T01:49:03,42.805,6.029,CST-1368DR,5663,7918,15037,0.151,551
2021-04-03T01:52:05,42.805,6.029,CST-1368DR,5663,7915,15032,0.152,551
2021-04-03T01:55:07,42.805,6.029,CST-1368DR,5662,7916,15036,0.151,551
2021-04-03T01:58:08,42.805,6.029,CST-1368DR,5662,7917,15037,0.151,551
2021-04-03T02:01:10,42.805,6.029,CST-1368DR,5662,7916,15035,0.152,551
2021-04-03T02:04:11,42.805,6.029,CST-1368DR,5662,7916,15037,0.151,551
2021-04-03T02:07:13,42.805,6.029,CST-1368DR,5661,7916,15038,0.151,551
2021-04-03T02:10:14,42.805,6.029,CST-1368DR,5661,7916,15038,0.151,551
2021-04-03T02:13:16,42.805,6.029,CST-1368DR,5661,7915,15037,0.151,551
2021-04-03T02:16:18,42.805,6.029,CST-1368DR,5661,7915,15037,0.151,551
2021-04-03T02:19:19,42.805,6.029,CST-1368DR,5661,7914,15036,0.151,551
2021-04-03T02:22:21,42.805,6.029,CST-1368DR,5660,7913,15035,0.152,551
2021-04-03T02:25:22,42.805,6.029,CST-1368DR,5660,7915,15039,0.151,551
2021-04-03T02:28:24,42.805,6.029,CST-1368DR,5660,7914,15038,0.151,551
2021-04-03T02:31:26,42.805,6.029,CST-1368DR,5660,7913,15036,0.151,551
2021-04-03T02:34:27,42.805,6.029,CST-1368DR,5660,7913,15036,0.151,551
2021-04-03T02:37:29,42.805,6.029,CST-1368DR,5659,7912,15037,0.151,551
2021-04-03T02:40:30,42.805,6.029,CST-1368DR,5659,7913,15037,0.151,551
2021-04-03T02:43:32,42.805,6.029,CST-1368DR,5659,7913,15037,0.151,551
2021-04-03T02:46:33,42.805,6.029,CST-1368DR,5659,7911,15034,0.152,551
2021-04-03T02:49:35,42.805,6.029,CST-1368DR,5659,7912,15036,0.151,551
2021-04-03T02:52:37,42.805,6.029,CST-1368DR,5658,7912,15039,0.151,551
2021-04-03T02:55:38,42.805,6.029,CST-1368DR,5658,7911,15037,0.151,551
2021-04-03T02:58:40,42.805,6.029,CST-1368DR,5658,7911,15037,0.151,551
2021-04-03T03:01:41,42.805,6.029,CST-1368DR,5658,7911,15036,0.151,551
2021-04-03T03:04:43,42.805,6.029,CST-1368DR,5658,7910,15035,0.152,551
2021-04-03T03:07:45,42.805,6.029,CST-1368DR,5657,7911,15039,0.151,551
2021-04-03T03:10:46,42.805,6.029,CST-1368DR,5657,7910,15038,0.151,551
2021-04-03T03:13:48,42.805,6.029,CST-1368DR,5657,7908,15034,0.152,551
2021-04-03T03:16:49,42.805,6.029,CST-1368DR,5657,7909,15036,0.151,551
2021-04-03T03:19:51,42.805,6.029,CST-1368DR,5657,7907,15031,0.153,551
2021-04-03T03:22:52,42.805,6.029,CST-1368DR,5656,7908,15037,0.151,551
2021-04-03T03:25:54,42.805,6.029,CST-1368DR,5656,7908,15036,0.151,551
2021-04-03T03:28:56,42.805,6.029,CST-1368DR,5656,7908,15035,0.152,551
2021-04-03T03:31:57,42.805,6.029,CST-1368DR,5656,7903,15026,0.154,551
2021-04-03T03:34:59,42.805,6.029,CST-1368DR,5656,7908,15036,0.151,551
2021-04-03T03:38:00,42.805,6.029,CST-1368DR,5656,7907,15034,0.152,551
2021-04-03T03:41:02,42.805,6.029,CST-1368DR,5655,7908,15038,0.151,551
2021-04-03T03:44:03,42.805,6.029,CST-1368DR,5655,7907,15036,0.151,551
2021-04-03T03:47:05,42.805,6.029,CST-1368DR,5655,7904,15031,0.153,551
2021-04-03T03:50:07,42.805,6.029,CST-1368DR,5655,7905,15033,0.152,551
2021-04-03T03:53:08,42.805,6.029,CST-1368DR,5655,7905,15033,0.152,551
2021-04-03T03:56:10,42.805,6.029,CST-1368DR,5654,7905,15035,0.152,551
2021-04-03T03:59:11,42.805,6.029,CST-1368DR,5654,7905,15035,0.152,551
2021-04-03T04:02:13,42.805,6.029,CST-1368DR,5654,7904,15033,0.152,551
2021-04-03T04:05:15,42.805,6.029,CST-1368DR,5654,7905,15035,0.152,551
2021-04-03T04:08:16,42.805,6.029,CST-1368DR,5654,7905,15035,0.152,551
2021-04-03T04:11:18,42.805,6.029,CST-1368DR,5653,7901,15031,0.153,551
2021-04-03T04:14:19,42.805,6.029,CST-1368DR,5653,7904,15037,0.151,551
2021-04-03T04:17:21,42.805,6.029,CST-1368DR,5653,7901,15031,0.153,551
2021-04-03T04:20:22,42.805,6.029,CST-1368DR,5653,7904,15037,0.151,551
2021-04-03T04:23:24,42.805,6.029,CST-1368DR,5653,7904,15036,0.151,551
2021-04-03T04:26:26,42.805,6.029,CST-1368DR,5653,7903,15035,0.152,551
2021-04-03T04:29:27,42.805,6.029,CST-1368DR,5652,7901,15032,0.152,551
2021-04-03T04:32:29,42.805,6.029,CST-1368DR,5652,7902,15035,0.152,551
2021-04-03T04:35:30,42.805,6.029,CST-1368DR,5652,7903,15037,0.151,551
2021-04-03T04:38:32,42.805,6.029,CST-1368DR,5652,7902,15034,0.152,551
2021-04-03T04:41:33,42.805,6.029,CST-1368DR,5652,7903,15036,0.151,551
2021-04-03T04:44:35,42.805,6.029,CST-1368DR,5652,7903,15037,0.151,551
2021-04-03T04:47:37,42.805,6.029,CST-1368DR,5652,7902,15034,0.152,551
2021-04-03T04:50:38,42.805,6.029,CST-1368DR,5651,7902,15037,0.151,551
2021-04-03T04:53:40,42.805,6.029,CST-1368DR,5651,7900,15034,0.152,551
2021-04-03T04:56:41,42.805,6.029,CST-1368DR,5651,7899,15032,0.152,551
2021-04-03T04:59:43,42.805,6.029,CST-1368DR,5651,7900,15034,0.152,551
2021-04-03T05:02:45,42.805,6.029,CST-1368DR,5651,7901,15036,0.151,551
2021-04-03T05:05:46,42.805,6.029,CST-1368DR,5651,7901,15035,0.152,551
2021-04-03T05:08:48,42.805,6.029,CST-1368DR,5650,7898,15033,0.152,551
2021-04-03T05:11:49,42.805,6.029,CST-1368DR,5650,7900,15036,0.151,551
2021-04-03T05:14:51,42.805,6.029,CST-1368DR,5650,7900,15036,0.151,551
2021-04-03T05:17:52,42.805,6.029,CST-1368DR,5650,7900,15035,0.152,551
2021-04-03T05:20:54,42.805,6.029,CST-1368DR,5650,7899,15034,0.152,551
2021-04-03T05:23:56,42.805,6.029,CST-1368DR,5650,7900,15035,0.152,551
2021-04-03T05:26:57,42.805,6.029,CST-1368DR,5650,7898,15032,0.152,551
2021-04-03T05:29:59,42.805,6.029,CST-1368DR,5649,7899,15037,0.151,551
2021-04-03T05:33:00,42.805,6.029,CST-1368DR,5649,7896,15032,0.152,551
2021-04-03T05:36:02,42.805,6.029,CST-1368DR,5649,7892,15023,0.155,551
2021-04-03T05:39:03,42.805,6.029,CST-1368DR,5649,7896,15031,0.153,550
2021-04-03T05:42:05,42.805,6.029,CST-1368DR,5649,7898,15034,0.152,551
2021-04-03T05:45:07,42.805,6.029,CST-1368DR,5649,7896,15031,0.153,551
2021-04-03T05:48:08,42.805,6.029,CST-1368DR,5649,7890,15019,0.156,551
2021-04-03T05:51:10,42.805,6.029,CST-1368DR,5648,7897,15036,0.151,551
2021-04-03T05:54:11,42.805,6.029,CST-1368DR,5648,7894,15030,0.153,551
2021-04-03T05:57:13,42.805,6.029,CST-1368DR,5648,7897,15035,0.152,551
2021-04-03T06:00:15,42.805,6.029,CST-1368DR,5648,7896,15033,0.152,551
2021-04-03T06:03:16,42.805,6.029,CST-1368DR,5648,7897,15035,0.152,551
2021-04-03T06:06:18,42.805,6.029,CST-1368DR,5648,7896,15033,0.152,551
2021-04-03T06:09:19,42.805,6.029,CST-1368DR,5648,7896,15034,0.152,551
2021-04-03T06:12:21,42.805,6.029,CST-1368DR,5647,7891,15027,0.154,551
2021-04-03T06:15:22,42.805,6.029,CST-1368DR,5647,7895,15034,0.152,551
2021-04-03T06:18:24,42.805,6.029,CST-1368DR,5647,7895,15035,0.152,551
2021-04-03T06:21:26,42.805,6.029,CST-1368DR,5647,7895,15033,0.152,551
2021-04-03T06:24:27,42.805,6.029,CST-1368DR,5647,7895,15034,0.152,551
2021-04-03T06:27:29,42.805,6.029,CST-1368DR,5646,7894,15035,0.152,551
2021-04-03T06:30:30,42.805,6.029,CST-1368DR,5646,7893,15032,0.152,551
2021-04-03T06:33:32,42.805,6.029,CST-1368DR,5646,7892,15030,0.153,551
2021-04-03T06:36:34,42.805,6.029,CST-1368DR,5646,7895,15036,0.151,551
2021-04-03T06:39:35,42.805,6.029,CST-1368DR,5646,7894,15035,0.152,551
2021-04-03T06:42:37,42.805,6.029,CST-1368DR,5646,7893,15032,0.152,551
2021-04-03T06:45:38,42.805,6.029,CST-1368DR,5646,7893,15033,0.152,551
2021-04-03T06:48:40,42.805,6.029,CST-1368DR,5646,7892,15031,0.153,551
2021-04-03T06:51:41,42.805,6.029,CST-1368DR,5645,7892,15033,0.152,551
2021-04-03T06:54:43,42.805,6.029,CST-1368DR,5645,7891,15032,0.152,551
2021-04-03T06:57:45,42.805,6.029,CST-1368DR,5645,7893,15035,0.152,551
2021-04-03T07:00:46,42.805,6.029,CST-1368DR,5645,7892,15034,0.152,551
2021-04-03T07:03:48,42.805,6.029,CST-1368DR,5645,7892,15034,0.152,551
2021-04-03T07:06:49,42.805,6.029,CST-1368DR,5644,7891,15035,0.152,551
2021-04-03T07:09:51,42.805,6.029,CST-1368DR,5644,7891,15033,0.152,551
2021-04-03T07:12:52,42.805,6.029,CST-1368DR,5644,7889,15029,0.153,551
2021-04-03T07:15:54,42.805,6.029,CST-1368DR,5644,7888,15029,0.153,551
2021-04-03T07:18:56,42.805,6.029,CST-1368DR,5644,7890,15033,0.152,551
2021-04-03T07:21:57,42.805,6.029,CST-1368DR,5644,7889,15031,0.153,551
2021-04-03T07:24:59,42.805,6.029,CST-1368DR,5643,7890,15034,0.152,551
2021-04-03T07:28:00,42.805,6.029,CST-1368DR,5643,7891,15036,0.151,551
2021-04-03T07:31:02,42.805,6.029,CST-1368DR,5643,7889,15033,0.152,551
2021-04-03T07:34:04,42.805,6.029,CST-1368DR,5643,7885,15025,0.154,551
2021-04-03T07:37:05,42.805,6.029,CST-1368DR,5643,7889,15032,0.152,551
2021-04-03T07:40:07,42.805,6.029,CST-1368DR,5643,7885,15026,0.154,551
2021-04-03T07:43:08,42.805,6.029,CST-1368DR,5643,7888,15031,0.153,551
2021-04-03T07:46:10,42.805,6.029,CST-1368DR,5643,7889,15032,0.152,551
2021-04-03T07:49:11,42.805,6.029,CST-1368DR,5642,7888,15033,0.152,551
2021-04-03T07:52:13,42.805,6.029,CST-1368DR,5642,7884,15026,0.154,551
2021-04-03T07:55:15,42.805,6.029,CST-1368DR,5642,7888,15033,0.152,551
2021-04-03T07:58:16,42.805,6.029,CST-1368DR,5642,7888,15033,0.152,551
2021-04-03T08:01:18,42.805,6.029,CST-1368DR,5642,7885,15028,0.154,551
2021-04-03T08:04:19,42.805,6.029,CST-1368DR,5642,7886,15030,0.153,551
2021-04-03T08:07:21,42.805,6.029,CST-1368DR,5642,7885,15028,0.154,551
2021-04-03T08:10:23,42.805,6.029,CST-1368DR,5641,7887,15034,0.152,551
2021-04-03T08:13:24,42.805,6.029,CST-1368DR,5641,7886,15032,0.152,551
2021-04-03T08:16:26,42.805,6.029,CST-1368DR,5641,7885,15030,0.153,551
2021-04-03T08:19:27,42.805,6.029,CST-1368DR,5641,7887,15035,0.152,551
2021-04-03T08:22:29,42.805,6.029,CST-1368DR,5641,7871,15004,0.160,551
2021-04-03T08:25:30,42.805,6.029,CST-1368DR,5641,7886,15031,0.153,551
2021-04-03T08:28:32,42.805,6.029,CST-1368DR,5641,7886,15031,0.153,551
2021-04-03T08:31:34,42.805,6.029,CST-1368DR,5640,7886,15034,0.152,551
2021-04-03T08:34:35,42.805,6.029,CST-1368DR,5640,7885,15033,0.152,551
2021-04-03T08:37:37,42.805,6.029,CST-1368DR,5640,7884,15030,0.153,551
2021-04-03T08:40:38,42.805,6.029,CST-1368DR,5640,7885,15033,0.152,551
2021-04-03T08:43:40,42.805,6.029,CST-1368DR,5640,7884,15030,0.153,551
2021-04-03T08:46:41,42.805,6.029,CST-1368DR,5640,7883,15029,0.153,551
2021-04-03T08:49:43,42.805,6.029,CST-1368DR,5640,7883,15028,0.154,551
2021-04-03T08:52:45,42.805,6.029,CST-1368DR,5640,7885,15032,0.152,551
2021-04-03T08:55:46,42.805,6.029,CST-1368DR,5639,7884,15033,0.152,551
2021-04-03T08:58:48,42.805,6.029,CST-1368DR,5639,7884,15033,0.152,551
2021-04-03T09:01:49,42.805,6.029,CST-1368DR,5639,7882,15030,0.153,551
2021-04-03T09:04:51,42.805,6.029,CST-1368DR,5639,7882,15029,0.153,551
2021-04-03T09:07:53,42.805,6.029,CST-1368DR,5639,7883,15031,0.153,551
2021-04-03T09:10:54,42.805,6.029,CST-1368DR,5639,7881,15027,0.154,551
2021-04-03T09:13:56,42.805,6.029,CST-1368DR,5638,7881,15030,0.153,551
2021-04-03T09:16:57,42.805,6.029,CST-1368DR,5638,7882,15031,0.153,551
2021-04-03T09:19:59,42.805,6.029,CST-1368DR,5638,7882,15033,0.152,551
2021-04-03T09:23:00,42.805,6.029,CST-1368DR,5638,7882,15031,0.153,551
2021-04-03T09:26:02,42.805,6.029,CST-1368DR,5638,7881,15031,0.153,551
2021-04-03T09:29:04,42.805,6.029,CST-1368DR,5638,7882,15032,0.152,551
2021-04-03T09:32:05,42.805,6.029,CST-1368DR,5638,7882,15031,0.153,551
2021-04-03T09:35:07,42.805,6.029,CST-1368DR,5637,7881,15032,0.152,551
2021-04-03T09:38:08,42.805,6.029,CST-1368DR,5637,7875,15021,0.155,551
2021-04-03T09:41:10,42.805,6.029,CST-1368DR,5637,7882,15034,0.152,551
2021-04-03T09:44:12,42.805,6.029,CST-1368DR,5637,7879,15029,0.153,551
2021-04-03T09:47:13,42.805,6.029,CST-1368DR,5637,7880,15031,0.153,551
2021-04-03T09:50:15,42.805,6.029,CST-1368DR,5637,7879,15029,0.153,551
2021-04-03T09:53:16,42.805,6.029,CST-1368DR,5637,7875,15022,0.155,551
2021-04-03T09:56:18,42.805,6.029,CST-1368DR,5637,7878,15028,0.154,551
2021-04-03T09:59:19,42.805,6.029,CST-1368DR,5636,7879,15031,0.153,551
2021-04-03T10:02:21,42.805,6.029,CST-1368DR,5636,7878,15030,0.153,551
2021-04-03T10:05:23,42.805,6.029,CST-1368DR,5636,7877,15028,0.154,551
2021-04-03T10:08:24,42.805,6.029,CST-1368DR,5636,7872,15018,0.156,551
2021-04-03T10:11:26,42.805,6.029,CST-1368DR,5636,7879,15031,0.153,551
2021-04-03T10:14:27,42.805,6.029,CST-1368DR,5635,7878,15033,0.152,551
2021-04-03T10:17:29,42.805,6.029,CST-1368DR,5635,7872,15020,0.156,551
2021-04-03T10:20:31,42.805,6.029,CST-1368DR,5635,7879,15034,0.152,551
2021-04-03T10:23:32,42.805,6.029,CST-1368DR,5635,7877,15030,0.153,550
2021-04-03T10:26:34,42.805,6.029,CST-1368DR,5635,7879,15033,0.152,551
2021-04-03T10:29:35,42.805,6.029,CST-1368DR,5635,7879,15034,0.152,551
2021-04-03T10:32:37,42.805,6.029,CST-1368DR,5635,7878,15031,0.153,551
2021-04-03T10:35:38,42.805,6.029,CST-1368DR,5635,7878,15033,0.152,551
2021-04-03T10:38:40,42.805,6.029,CST-1368DR,5635,7879,15034,0.152,551
2021-04-03T10:41:42,42.805,6.029,CST-1368DR,5634,7878,15035,0.152,551
2021-04-03T10:44:43,42.805,6.029,CST-1368DR,5634,7878,15034,0.152,551
2021-04-03T10:47:45,42.805,6.029,CST-1368DR,5634,7878,15035,0.152,551
2021-04-03T10:50:46,42.805,6.029,CST-1368DR,5634,7877,15033,0.152,551
2021-04-03T10:53:48,42.805,6.029,CST-1368DR,5634,7877,15033,0.152,550
2021-04-03T10:56:49,42.805,6.029,CST-1368DR,5634,7878,15034,0.152,551
2021-04-03T10:59:51,42.805,6.029,CST-1368DR,5634,7876,15031,0.153,551
2021-04-03T11:02:53,42.805,6.029,CST-1368DR,5634,7876,15031,0.153,551
2021-04-03T11:05:54,42.805,6.029,CST-1368DR,5633,7871,15023,0.155,551
2021-04-03T11:08:56,42.805,6.029,CST-1368DR,5633,7875,15032,0.152,551
2021-04-03T11:11:57,42.805,6.029,CST-1368DR,5633,7870,15022,0.155,551
2021-04-03T11:14:59,42.805,6.029,CST-1368DR,5633,7876,15033,0.152,551
2021-04-03T11:18:01,42.805,6.029,CST-1368DR,5633,7876,15033,0.152,551
2021-04-03T11:21:02,42.805,6.029,CST-1368DR,5633,7876,15033,0.152,551
2021-04-03T11:24:04,42.805,6.029,CST-1368DR,5633,7876,15033,0.152,551
2021-04-03T11:27:05,42.805,6.029,CST-1368DR,5633,7875,15032,0.152,550
2021-04-03T11:30:07,42.805,6.029,CST-1368DR,5633,7875,15030,0.153,551
2021-04-03T11:33:08,42.805,6.029,CST-1368DR,5633,7872,15025,0.154,551
2021-04-03T11:36:10,42.805,6.029,CST-1368DR,5632,7876,15035,0.152,551
2021-04-03T11:39:12,42.805,6.029,CST-1368DR,5632,7875,15033,0.152,551
2021-04-03T11:42:13,42.805,6.029,CST-1368DR,5632,7873,15030,0.153,551
2021-04-03T11:45:15,42.805,6.029,CST-1368DR,5632,7869,15022,0.155,551
2021-04-03T11:48:16,42.805,6.029,CST-1368DR,5632,7874,15032,0.152,551
2021-04-03T11:51:18,42.805,6.029,CST-1368DR,5632,7844,14975,0.168,551
2021-04-03T11:54:20,42.805,6.029,CST-1368DR,5632,7874,15032,0.152,551
2021-04-03T11:57:21,42.805,6.029,CST-1368DR,5632,7874,15031,0.153,551
2021-04-03T12:00:23,42.805,6.029,CST-1368DR,5631,7873,15033,0.152,551
2021-04-03T12:03:24,42.805,6.029,CST-1368DR,5631,7871,15029,0.153,551
2021-04-03T12:06:26,42.805,6.029,CST-1368DR,5631,7870,15027,0.154,551
2021-04-03T12:09:27,42.805,6.029,CST-1368DR,5631,7872,15030,0.153,551
2021-04-03T12:12:29,42.805,6.029,CST-1368DR,5631,7872,15031,0.153,551
2021-04-03T12:15:31,42.805,6.029,CST-1368DR,5631,7871,15028,0.154,551
2021-04-03T12:18:32,42.805,6.029,CST-1368DR,5631,7872,15031,0.153,551
2021-04-03T12:21:34,42.805,6.029,CST-1368DR,5630,7871,15031,0.153,551
2021-04-03T12:24:35,42.805,6.029,CST-1368DR,5630,7870,15029,0.153,551
2021-04-03T12:27:37,42.805,6.029,CST-1368DR,5630,7872,15032,0.152,551
2021-04-03T12:30:38,42.805,6.029,CST-1368DR,5630,7872,15033,0.152,551
2021-04-03T12:33:40,42.805,6.029,CST-1368DR,5630,7872,15032,0.152,551
2021-04-03T12:36:42,42.805,6.029,CST-1368DR,5630,7871,15032,0.152,551
2021-04-03T12:39:43,42.805,6.029,CST-1368DR,5630,7869,15028,0.154,551
2021-04-03T12:42:45,42.805,6.029,CST-1368DR,5630,7871,15031,0.153,551
2021-04-03T12:45:46,42.805,6.029,CST-1368DR,5630,7870,15028,0.154,551
2021-04-03T12:48:48,42.805,6.029,CST-1368DR,5629,7870,15031,0.153,551
2021-04-03T12:51:50,42.805,6.029,CST-1368DR,5629,7870,15032,0.152,551
2021-04-03T12:54:51,42.805,6.029,CST-1368DR,5629,7869,15031,0.153,551
2021-04-03T12:57:53,42.805,6.029,CST-1368DR,5629,7869,15029,0.153,551
2021-04-03T13:00:54,42.805,6.029,CST-1368DR,5629,7870,15031,0.153,550
2021-04-03T13:03:56,42.805,6.029,CST-1368DR,5629,7866,15023,0.155,551
2021-04-03T13:06:57,42.805,6.029,CST-1368DR,5629,7868,15028,0.154,551
2021-04-03T13:09:59,42.805,6.029,CST-1368DR,5628,7869,15032,0.152,551
2021-04-03T13:13:01,42.805,6.029,CST-1368DR,5628,7868,15030,0.153,551
2021-04-03T13:16:02,42.805,6.029,CST-1368DR,5628,7868,15031,0.153,551
2021-04-03T13:19:04,42.805,6.029,CST-1368DR,5628,7869,15033,0.152,551
2021-04-03T13:22:05,42.805,6.029,CST-1368DR,5628,7868,15030,0.153,551
2021-04-03T13:25:07,42.805,6.029,CST-1368DR,5628,7867,15029,0.153,551
2021-04-03T13:28:08,42.805,6.029,CST-1368DR,5628,7868,15030,0.153,551
2021-04-03T13:31:10,42.805,6.029,CST-1368DR,5628,7866,15026,0.154,551
2021-04-03T13:34:12,42.805,6.029,CST-1368DR,5628,7864,15023,0.155,551
2021-04-03T13:37:13,42.805,6.029,CST-1368DR,5627,7866,15029,0.153,551
2021-04-03T13:40:15,42.805,6.029,CST-1368DR,5627,7867,15032,0.152,551
2021-04-03T13:43:16,42.805,6.029,CST-1368DR,5627,7868,15032,0.152,551
2021-04-03T13:46:18,42.805,6.029,CST-1368DR,5627,7862,15021,0.155,551
2021-04-03T13:49:20,42.805,6.029,CST-1368DR,5627,7867,15031,0.153,551
2021-04-03T13:52:21,42.805,6.029,CST-1368DR,5627,7865,15027,0.154,551
2021-04-03T13:55:23,42.805,6.029,CST-1368DR,5627,7865,15027,0.154,551
2021-04-03T13:58:24,42.805,6.029,CST-1368DR,5627,7866,15030,0.153,551
2021-04-03T14:01:26,42.805,6.029,CST-1368DR,5627,7864,15026,0.154,551
2021-04-03T14:04:27,42.805,6.029,CST-1368DR,5627,7865,15027,0.154,550
2021-04-03T14:07:29,42.805,6.029,CST-1368DR,5626,7866,15032,0.152,551
2021-04-03T14:10:31,42.805,6.029,CST-1368DR,5626,7865,15030,0.153,551
2021-04-03T14:13:32,42.805,6.029,CST-1368DR,5626,7866,15032,0.152,551
2021-04-03T14:16:34,42.805,6.029,CST-1368DR,5626,7866,15031,0.153,551
2021-04-03T14:19:35,42.805,6.029,CST-1368DR,5626,7864,15028,0.154,551
2021-04-03T14:22:37,42.805,6.029,CST-1368DR,5626,7864,15029,0.153,551
2021-04-03T14:25:39,42.805,6.029,CST-1368DR,5626,7865,15029,0.153,551
2021-04-03T14:28:40,42.805,6.029,CST-1368DR,5626,7862,15025,0.154,551
2021-04-03T14:31:42,42.805,6.029,CST-1368DR,5626,7865,15029,0.153,551
2021-04-03T14:34:43,42.805,6.029,CST-1368DR,5625,7864,15031,0.153,551
2021-04-03T14:37:45,42.805,6.029,CST-1368DR,5625,7865,15032,0.152,551
2021-04-03T14:40:46,42.805,6.029,CST-1368DR,5625,7864,15031,0.153,551
2021-04-03T14:43:48,42.805,6.029,CST-1368DR,5625,7864,15031,0.153,551
2021-04-03T14:46:50,42.805,6.029,CST-1368DR,5625,7863,15028,0.154,551
2021-04-03T14:49:51,42.805,6.029,CST-1368DR,5625,7865,15032,0.152,551
2021-04-03T14:52:53,42.805,6.029,CST-1368DR,5625,7865,15032,0.152,551
2021-04-03T14:55:54,42.805,6.029,CST-1368DR,5625,7865,15032,0.152,551
2021-04-03T14:58:56,42.805,6.029,CST-1368DR,5625,7859,15021,0.155,551
2021-04-03T15:01:57,42.805,6.029,CST-1368DR,5625,7864,15031,0.153,551
2021-04-03T15:04:59,42.805,6.029,CST-1368DR,5625,7865,15033,0.152,551
2021-04-03T15:08:01,42.805,6.029,CST-1368DR,5624,7864,15033,0.152,551
2021-04-03T15:11:02,42.805,6.029,CST-1368DR,5624,7863,15032,0.152,551
2021-04-03T15:14:04,42.805,6.029,CST-1368DR,5624,7863,15031,0.153,551
2021-04-03T15:17:05,42.805,6.029,CST-1368DR,5624,7863,15032,0.152,551
2021-04-03T15:20:07,42.805,6.029,CST-1368DR,5624,7862,15028,0.154,551
2021-04-03T15:23:09,42.805,6.029,CST-1368DR,5624,7862,15028,0.154,551
2021-04-03T15:26:10,42.805,6.029,CST-1368DR,5624,7860,15026,0.154,551
2021-04-03T15:29:12,42.805,6.029,CST-1368DR,5624,7863,15032,0.152,551
2021-04-03T15:32:13,42.805,6.029,CST-1368DR,5624,7862,15029,0.153,551
2021-04-03T15:35:15,42.805,6.029,CST-1368DR,5624,7860,15026,0.154,551
2021-04-03T15:38:16,42.805,6.029,CST-1368DR,5623,7859,15027,0.154,551
2021-04-03T15:41:18,42.805,6.029,CST-1368DR,5623,7861,15029,0.153,551
2021-04-03T15:44:20,42.805,6.029,CST-1368DR,5623,7860,15029,0.153,551
2021-04-03T15:47:21,42.805,6.029,CST-1368DR,5623,7858,15025,0.154,551
2021-04-03T15:50:23,42.805,6.029,CST-1368DR,5623,7861,15030,0.153,551
2021-04-03T15:53:24,42.805,6.029,CST-1368DR,5623,7860,15027,0.154,551
2021-04-03T15:56:26,42.805,6.029,CST-1368DR,5623,7859,15025,0.154,551
2021-04-03T15:59:28,42.805,6.029,CST-1368DR,5623,7861,15030,0.153,551
2021-04-03T16:02:29,42.805,6.029,CST-1368DR,5623,7862,15031,0.153,551
2021-04-03T16:05:31,42.805,6.029,CST-1368DR,5623,7861,15030,0.153,551
2021-04-03T16:08:32,42.805,6.029,CST-1368DR,5623,7861,15029,0.153,551
2021-04-03T16:11:34,42.805,6.029,CST-1368DR,5622,7860,15031,0.153,551
2021-04-03T16:14:35,42.805,6.029,CST-1368DR,5622,7860,15030,0.153,551
2021-04-03T16:17:37,42.805,6.029,CST-1368DR,5622,7861,15032,0.152,551
2021-04-03T16:20:39,42.805,6.029,CST-1368DR,5622,7857,15025,0.154,551
2021-04-03T16:23:40,42.805,6.029,CST-1368DR,5622,7858,15026,0.154,551
2021-04-03T16:26:42,42.805,6.029,CST-1368DR,5622,7860,15031,0.153,551
2021-04-03T16:29:43,42.805,6.029,CST-1368DR,5622,7860,15030,0.153,551
2021-04-03T16:32:45,42.805,6.029,CST-1368DR,5622,7859,15029,0.153,551
2021-04-03T16:35:46,42.805,6.029,CST-1368DR,5622,7859,15028,0.154,551
2021-04-03T16:38:48,42.805,6.029,CST-1368DR,5621,7859,15031,0.153,551
2021-04-03T16:41:50,42.805,6.029,CST-1368DR,5621,7859,15031,0.153,550
2021-04-03T16:44:51,42.805,6.029,CST-1368DR,5621,7859,15030,0.153,551
2021-04-03T16:47:53,42.805,6.029,CST-1368DR,5621,7857,15028,0.154,551
2021-04-03T16:50:54,42.805,6.029,CST-1368DR,5621,7857,15028,0.154,551